Total_Precipitation_Accumulation
1.21 1.35 1.61 2.00 2.44 2.93 3.04 3.05 3.17 3.37 3.49 3.58 3.57 3.41 3.05 2.86 2.67 2.45 2.31 2.19 2.06 2.06 2.09 1.87 1.72 1.67 1.59 1.52 1.49 1.44 1.29 1.08 1.04 0.98 0.77 0.56 0.46 0.42 0.36 0.33 0.32 0.30 0.30
1.18 1.29 1.48 1.75 1.99 2.47 2.83 2.90 2.98 3.07 3.13 3.18 3.38 3.48 3.33 3.01 2.86 2.76 2.57 2.35 2.19 2.09 2.11 2.13 2.01 1.81 1.75 1.72 1.65 1.56 1.41 1.28 1.21 1.14 1.08 0.90 0.71 0.53 0.43 0.39 0.36 0.34 0.33
1.11 1.23 1.34 1.63 1.80 2.16 2.60 2.79 2.92 3.04 3.00 3.13 3.54 3.76 3.75 3.40 3.08 2.87 2.77 2.60 2.38 2.26 2.12 2.02 2.05 2.00 1.90 1.83 1.80 1.77 1.73 1.59 1.45 1.33 1.38 1.20 0.92 0.70 0.55 0.48 0.45 0.44 0.43
1.00 1.08 1.15 1.44 1.65 1.86 2.21 2.48 2.81 3.05 3.16 3.23 3.40 3.43 3.25 3.04 2.75 2.66 2.64 2.65 2.58 2.37 2.24 2.17 2.10 2.05 1.98 1.87 1.88 1.89 1.87 1.86 1.74 1.58 1.46 1.32 1.10 1.01 0.79 0.61 0.56 0.58 0.58
0.95 1.09 1.14 1.25 1.37 1.63 1.93 2.11 2.37 2.69 2.94 3.08 3.25 3.36 3.16 2.89 2.73 2.69 2.66 2.62 2.60 2.48 2.33 2.24 2.21 2.17 2.08 1.98 1.94 1.96 1.92 1.88 1.84 1.75 1.61 1.51 1.30 1.12 1.05 0.85 0.70 0.70 0.65
0.95 1.04 1.06 1.14 1.22 1.38 1.70 1.86 2.06 2.31 2.61 2.79 2.98 3.21 3.08 2.81 2.54 2.47 2.48 2.43 2.41 2.33 2.22 2.20 2.17 2.12 2.06 1.95 1.87 1.87 1.88 1.85 1.76 1.68 1.59 1.54 1.44 1.27 1.22 1.11 0.90 0.86 0.80
0.87 0.95 1.00 1.14 1.21 1.30 1.42 1.51 1.63 1.81 2.13 2.41 2.53 2.74 2.84 2.78 2.57 2.31 2.27 2.22 2.15 2.06 1.98 2.00 2.02 2.03 1.98 1.94 1.88 1.81 1.71 1.74 1.74 1.66 1.56 1.46 1.31 1.26 1.33 1.33 1.15 1.00 0.87
0.84 0.86 0.91 1.04 1.17 1.26 1.25 1.22 1.30 1.48 1.63 1.84 2.04 2.21 2.29 2.43 2.45 2.30 2.12 2.06 1.95 1.87 1.85 1.88 1.91 1.96 2.00 1.96 1.92 1.83 1.72 1.68 1.65 1.60 1.55 1.51 1.38 1.28 1.27 1.32 1.39 1.32 1.09
0.76 0.82 0.92 0.98 1.03 1.12 1.11 1.09 1.14 1.25 1.32 1.49 1.66 1.89 1.93 1.96 2.06 2.10 2.07 2.02 1.89 1.79 1.80 1.87 1.87 1.82 1.79 1.79 1.81 1.78 1.64 1.54 1.52 1.47 1.46 1.44 1.38 1.34 1.29 1.31 1.44 1.66 1.60
0.76 0.85 0.96 1.02 1.02 1.06 1.06 1.00 1.03 1.11 1.19 1.29 1.45 1.62 1.72 1.79 1.82 1.83 1.82 1.83 1.80 1.68 1.65 1.68 1.75 1.75 1.70 1.68 1.68 1.61 1.52 1.44 1.32 1.27 1.29 1.31 1.30 1.33 1.36 1.40 1.46 1.60 1.76
0.77 0.87 0.96 1.06 1.06 1.01 0.98 0.97 0.93 0.98 1.07 1.15 1.24 1.35 1.44 1.56 1.66 1.64 1.60 1.60 1.60 1.55 1.50 1.53 1.53 1.51 1.49 1.49 1.53 1.48 1.43 1.41 1.33 1.25 1.20 1.15 1.18 1.27 1.32 1.41 1.48 1.56 1.68
0.71 0.80 0.86 0.89 0.92 0.94 0.98 1.00 0.94 0.94 0.96 1.06 1.16 1.21 1.26 1.32 1.44 1.47 1.48 1.45 1.45 1.44 1.41 1.43 1.46 1.42 1.37 1.35 1.36 1.35 1.34 1.36 1.35 1.32 1.31 1.26 1.23 1.30 1.35 1.42 1.48 1.49 1.49
0.68 0.71 0.78 0.79 0.78 0.82 0.89 0.96 0.95 0.95 0.93 0.95 1.07 1.19 1.21 1.17 1.26 1.33 1.30 1.31 1.32 1.39 1.39 1.33 1.36 1.35 1.34 1.34 1.32 1.31 1.33 1.33 1.33 1.35 1.38 1.36 1.38 1.38 1.34 1.31 1.30 1.28 1.25
0.69 0.68 0.70 0.72 0.72 0.74 0.74 0.77 0.82 0.85 0.90 0.96 0.99 1.06 1.13 1.13 1.12 1.20 1.18 1.18 1.21 1.27 1.32 1.28 1.24 1.27 1.31 1.33 1.33 1.36 1.41 1.44 1.43 1.43 1.42 1.40 1.40 1.35 1.31 1.26 1.18 1.14 1.16
0.60 0.62 0.64 0.64 0.64 0.67 0.66 0.66 0.68 0.78 0.87 0.95 0.98 0.97 1.02 1.06 1.09 1.13 1.17 1.15 1.18 1.20 1.24 1.25 1.21 1.22 1.29 1.37 1.39 1.37 1.42 1.51 1.54 1.51 1.44 1.38 1.42 1.38 1.30 1.23 1.18 1.17 1.22
0.56 0.57 0.57 0.56 0.57 0.62 0.67 0.66 0.66 0.73 0.80 0.90 0.97 0.94 0.90 0.93 1.03 1.13 1.18 1.20 1.19 1.22 1.26 1.32 1.32 1.31 1.34 1.61 1.65 1.54 1.48 1.50 1.48 1.43 1.35 1.30 1.32 1.28 1.30 1.28 1.23 1.26 1.33
0.49 0.51 0.52 0.52 0.55 0.60 0.63 0.63 0.67 0.73 0.74 0.83 0.93 0.94 0.94 0.97 1.00 1.08 1.19 1.27 1.28 1.29 1.36 1.44 1.49 1.50 1.56 1.67 1.55 1.51 1.36 1.33 1.31 1.22 1.14 1.09 1.05 1.07 0.96 1.06 1.15 1.16 1.24
0.44 0.44 0.45 0.46 0.47 0.51 0.56 0.59 0.62 0.66 0.69 0.73 0.83 0.90 0.93 1.04 1.12 1.16 1.19 1.24 1.30 1.39 1.50 1.57 1.58 1.54 1.56 1.53 1.34 1.29 1.16 1.08 1.02 0.98 0.94 0.90 0.87 0.88 0.92 0.92 0.98 0.93 0.88
0.45 0.46 0.45 0.47 0.45 0.45 0.50 0.55 0.61 0.66 0.69 0.74 0.83 0.92 0.95 1.00 1.10 1.23 1.28 1.30 1.33 1.40 1.45 1.47 1.41 1.30 1.23 1.23 1.09 0.99 0.89 0.89 0.85 0.78 0.78 0.80 0.76 0.91 1.08 1.05 0.99 0.85 0.76
0.39 0.45 0.44 0.44 0.45 0.47 0.51 0.58 0.64 0.72 0.82 0.89 0.96 1.05 1.11 1.11 1.09 1.16 1.23 1.23 1.17 1.14 1.07 1.02 0.98 0.91 0.83 0.88 0.89 0.88 0.74 0.73 0.73 0.72 0.73 0.85 0.84 0.99 1.12 1.02 1.00 0.89 0.74
0.35 0.42 0.46 0.49 0.51 0.56 0.61 0.71 0.76 0.88 0.96 1.02 1.03 1.11 1.15 1.14 1.10 1.00 0.93 0.88 0.82 0.77 0.75 0.72 0.69 0.67 0.69 0.71 0.74 0.83 0.80 0.75 0.69 0.67 0.67 0.70 0.89 1.00 1.07 1.01 0.88 0.92 0.96
0.34 0.43 0.49 0.53 0.56 0.62 0.67 0.73 0.80 0.86 0.87 0.91 0.89 0.90 0.86 0.77 0.72 0.72 0.69 0.69 0.68 0.64 0.61 0.63 0.65 0.62 0.63 0.70 0.73 0.79 0.84 0.87 0.77 0.66 0.58 0.63 0.84 0.91 0.94 0.89 0.90 1.02 0.99
0.28 0.33 0.41 0.44 0.45 0.49 0.55 0.63 0.63 0.62 0.61 0.60 0.58 0.58 0.57 0.54 0.54 0.58 0.62 0.64 0.66 0.66 0.63 0.61 0.63 0.64 0.61 0.66 0.77 0.82 0.87 0.91 0.84 0.74 0.72 0.70 0.73 0.72 0.75 0.82 0.87 0.86 0.80
0.24 0.29 0.33 0.36 0.37 0.38 0.44 0.51 0.50 0.47 0.49 0.50 0.50 0.50 0.52 0.51 0.52 0.56 0.60 0.65 0.67 0.67 0.66 0.66 0.64 0.62 0.62 0.64 0.67 0.76 0.84 0.88 0.89 0.88 0.87 0.80 0.73 0.70 0.69 0.73 0.73 0.70 0.72
0.27 0.32 0.37 0.39 0.40 0.39 0.39 0.42 0.43 0.43 0.48 0.49 0.49 0.49 0.51 0.54 0.54 0.58 0.63 0.69 0.71 0.76 0.79 0.75 0.69 0.67 0.66 0.65 0.78 0.81 0.80 0.86 0.95 1.00 0.91 0.85 0.79 0.76 0.72 0.69 0.68 0.70 0.76
0.30 0.33 0.39 0.43 0.45 0.44 0.44 0.44 0.45 0.47 0.53 0.55 0.55 0.55 0.56 0.59 0.64 0.66 0.66 0.74 0.77 0.82 0.84 0.80 0.75 0.67 0.66 0.71 0.77 0.81 0.84 0.92 1.02 1.05 0.94 0.82 0.74 0.69 0.66 0.65 0.65 0.67 0.71